[[{"header":{"parameterUnit":"m.s-1","parameterCategory":1,"la1":30.2991,"la2":30.254,"lo1":-89.0895,"lo2":-89.0444,"dy":0.0017,"dx":0.0017,"nx":28,"ny":28,"refTime":"2023-08-19T03:00:00:Z","depth":0,"parameterNumber":2,"parameterNumberName":"U-component_of_WINDS"},"data":[0,0,0,0,0,0,0,0,0,0,0,0,0,0,0,0,0,0,0,0,0,0,0,0,0,0,0,0,0,0,0,0,0,0,0,0,0,0,0,0,0,0,0,0,0,0,0,0,0,0,0,0,0,0,0,0,0,0,2.9999,2.9999,0,3.001,3.001,3.001,2.9869,2.9865,2.9861,2.9858,2.987,2.9874,2.9878,0,0,0,0,0,0,0,0,0,0,0,0,0,2.9857,2.986,2.9999,2.9999,2.9999,3.001,3.001,3.001,2.987,2.9865,2.986,2.9856,2.9869,2.9874,2.9878,0,0,0,0,0,0,0,0,0,0,0,0,0,2.9899,2.9862,2.9999,2.993,2.9924,3.001,3.001,3.001,2.9871,2.9865,2.9859,2.9854,2.9867,2.9873,2.9879,3.0031,0,0,2.9897,2.99,0,0,0,0,0,0,0,0,2.9896,2.9904,2.994,2.9935,2.9929,2.9932,2.9965,3.0017,2.9872,2.9891,2.9858,2.9851,2.9896,2.9899,2.9914,3.0032,3.0032,2.9897,2.9901,2.9904,2.9905,0,0,0,0,0,0,0,2.9894,2.9903,3.0003,2.9941,2.9934,2.9899,2.9899,2.9974,2.9926,2.9889,2.9879,2.9882,2.9891,2.9908,2.9913,3.0032,2.9897,2.9903,2.9906,2.9909,3.0276,3.0282,0,0,0,0,0,0,2.99,2.9901,3.0003,3.0004,2.9898,2.9907,2.9906,2.9937,2.9924,2.9917,2.9887,2.9875,2.9901,2.9906,2.9913,3.0089,2.9904,2.9909,2.9912,3.027,3.0277,3.0284,0,0,0,0,0,0,2.9898,2.991,3.0002,2.995,2.9959,2.9915,2.9951,2.994,2.9957,2.9923,2.9914,2.9913,2.9897,2.9905,3.0003,3.0088,2.9912,2.9917,3.0262,3.0272,3.0281,3.0445,0,0,0,0,0,0,2.9894,2.991,2.9967,2.9952,2.9962,3.0092,2.9956,2.9945,2.9967,2.9952,2.9945,2.9938,2.9893,2.9995,3.0009,3.0093,2.9922,3.0254,3.0267,3.0278,3.0431,3.0458,3.0481,0,0,0,0,0,2.9889,3.0013,2.9971,2.9984,3.0032,3.0097,3.0103,3.0048,2.9975,3.0032,3.001,2.9938,3.0077,3.0006,3.002,3.0108,3.0249,3.0263,3.0277,3.042,3.0453,3.0481,0,0,0,0,0,0,3.004,3.001,2.9963,3.0085,3.0095,3.0073,3.0143,3.0085,3.0115,3.01,3.0031,3.0031,3.014,3.0134,3.0055,3.0254,3.015,3.0168,3.0254,3.0285,3.031,3.0308,2.9927,0,0,0,0,0,3.0088,3.0142,3.0113,3.0224,3.0232,3.0188,3.0214,3.017,3.0178,3.0181,3.0166,3.0177,3.0222,3.0253,3.0293,3.043,3.0426,3.0498,3.0523,3.0544,3.0559,3.0631,3.0662,3.033,3.033,3.0329,0,0,3.0186,3.0176,3.0215,3.0254,3.0257,3.0315,3.0192,3.0259,3.0301,3.0191,3.0282,3.0273,3.0279,3.0398,3.0449,3.0396,3.065,3.0561,3.0578,3.0582,3.0648,3.068,3.0708,3.0339,3.0338,3.0336,0,0,3.0395,3.0394,3.0485,3.0491,3.0496,3.0466,3.0488,3.0476,3.0465,3.0556,3.0474,3.0524,3.0605,3.0612,3.0627,3.0841,3.0776,3.0856,3.0987,3.1057,3.1083,3.1106,3.1181,3.1209,3.0872,3.0873,3.0873,0,3.0516,3.0601,3.054,3.0613,3.0632,3.0536,3.0628,3.0637,3.0655,3.0671,3.0612,3.071,3.0708,3.0826,3.0879,3.0894,3.0917,3.0856,3.1084,3.1107,3.1127,3.1198,3.1227,3.0882,3.0881,3.088,3.0879,0,3.075,3.081,3.0884,3.0903,3.0932,3.1014,3.0967,3.1003,3.0958,3.0934,3.1028,3.1023,3.106,3.1085,3.1042,3.1198,3.1164,3.1096,3.0989,3.1169,3.1235,3.1262,3.0896,3.0893,3.089,3.0887,0,0,3.1051,3.1038,3.1066,3.1074,3.1073,3.1118,3.1197,3.1233,3.1265,3.1282,3.1346,3.1417,3.1353,3.137,3.1327,3.139,3.1559,3.1313,3.1312,3.1358,3.1729,3.1779,3.1812,3.1516,3.1521,3.1525,3.1728,0,3.1254,3.1386,3.1335,3.1471,3.1526,3.1436,3.1504,3.1512,3.1493,3.1536,3.1515,3.1566,3.1479,3.1489,3.1546,3.1526,3.1632,3.1511,3.1575,3.1578,3.1574,3.1846,3.1899,3.2091,3.1753,3.1758,3.1761,0,3.1506,3.1533,3.1676,3.1665,3.1686,3.1749,3.1778,3.1821,3.1828,3.181,3.183,3.1774,3.185,3.1746,3.185,3.1769,3.1793,3.1787,3.1793,3.1795,3.1679,3.1854,3.215,3.2179,3.1801,3.1798,3.1795,0,3.1711,3.1783,3.1877,3.1887,3.1878,3.1924,3.1922,3.1923,3.1949,3.1975,3.199,3.2025,3.2044,3.2073,3.2028,3.1956,3.2139,3.2031,3.2125,3.2127,3.2166,3.2164,3.2469,3.2185,3.2184,3.2184,3.2183,0,3.1941,3.2031,3.1968,3.2026,3.2125,3.2066,3.2165,3.2154,3.2156,3.221,3.2135,3.2188,3.2126,3.2173,3.2139,3.223,3.224,3.2227,3.2216,3.2233,3.2234,3.2246,3.2231,3.2191,3.219,3.2188,3.2187,0,3.2185,3.2147,3.2243,3.2227,3.2225,3.2299,3.2285,3.2338,3.2314,3.2384,3.2397,3.236,3.2411,3.2369,3.242,3.2397,3.2518,3.2489,3.2515,3.2507,3.2603,3.2594,3.2924,3.2964,3.2657,3.266,3.2662,0,3.2333,3.24,3.2392,3.2423,3.2426,3.2477,3.2502,3.2447,3.2477,3.249,3.2542,3.2587,3.262,3.2706,3.2684,3.2722,3.2693,3.2806,3.2698,3.2712,3.2693,3.2689,3.2695,3.2828,3.2831,3.2834,3.2837,0,3.26,3.2578,3.2617,3.2651,3.2683,3.2707,3.2724,3.2754,3.2698,3.2735,3.2787,3.2813,3.2864,3.291,3.2941,3.2939,3.2879,3.2871,3.2895,3.2911,3.2923,3.2916,3.2573,3.2863,3.2861,3.2859,3.2857,3.2856,3.2799,3.2855,3.2858,3.2904,3.2912,3.293,3.2979,3.2962,3.3004,3.3041,3.3006,3.3069,3.3074,3.3109,3.3116,3.3164,3.3117,3.3151,3.316,3.3169,3.3182,3.2917,3.3169,3.3169,3.3168,3.3167,3.3167,0,3.3061,3.3059,3.3102,3.3129,3.3166,3.3107,3.3124,3.3158,3.3214,3.3224,3.3258,3.3318,3.3362,3.3344,3.3383,3.3425,3.3398,3.3437,3.3432,3.3433,3.3222,3.3197,3.3458,3.3458,3.3458,3.3458,3.3457,3.3457,3.3201,3.3292,3.3271,3.3365,3.3361,3.3421,3.3436,3.3453,3.3461,3.3531,3.3567,3.3555,3.3554,3.3592,3.363,3.3624,3.3641,3.3689,3.3673,3.3476,3.3448,3.342,3.3396,3.3694,3.3694,3.3879,3.3881,3.3882]},{"header":{"parameterUnit":"m.s-1","parameterCategory":1,"la1":30.2991,"la2":30.254,"lo1":-89.0895,"lo2":-89.0444,"dy":0.0017,"dx":0.0017,"nx":28,"ny":28,"refTime":"2023-08-19T03:00:00:Z","depth":0,"parameterNumber":3,"parameterNumberName":"V-component_of_WINDS"},"data":[0,0,0,0,0,0,0,0,0,0,0,0,0,0,0,0,0,0,0,0,0,0,0,0,0,0,0,0,0,0,0,0,0,0,0,0,0,0,0,0,0,0,0,0,0,0,0,0,0,0,0,0,0,0,0,0,0,0,0.7139,0.7141,0,0.7243,0.7244,0.7245,0.7274,0.7274,0.7273,0.7273,0.7382,0.7385,0.7389,0,0,0,0,0,0,0,0,0,0,0,0,0,0.6969,0.6972,0.7139,0.7141,0.7142,0.7243,0.7244,0.7246,0.7275,0.7274,0.7273,0.7272,0.7381,0.7385,0.7389,0,0,0,0,0,0,0,0,0,0,0,0,0,0.7055,0.6973,0.7139,0.7168,0.7172,0.7242,0.7244,0.7246,0.7275,0.7274,0.7273,0.7272,0.7379,0.7384,0.739,0.7439,0,0,0.7405,0.7408,0,0,0,0,0,0,0,0,0.705,0.7061,0.7163,0.7167,0.7171,0.7245,0.7224,0.7311,0.7275,0.7236,0.7273,0.7272,0.7337,0.7346,0.7367,0.7444,0.7449,0.7406,0.7409,0.7411,0.7413,0,0,0,0,0,0,0,0.7044,0.7057,0.718,0.7164,0.7169,0.7177,0.7188,0.7241,0.729,0.7239,0.7241,0.7253,0.7339,0.7362,0.737,0.7451,0.7406,0.741,0.7414,0.7416,0.7573,0.7574,0,0,0,0,0,0,0.7033,0.7052,0.7177,0.7184,0.7107,0.7181,0.7194,0.7222,0.729,0.7299,0.7254,0.7254,0.7354,0.7364,0.7374,0.7436,0.7411,0.7416,0.7419,0.7572,0.7573,0.7574,0,0,0,0,0,0,0.7029,0.7044,0.7173,0.7118,0.7135,0.7185,0.7217,0.7224,0.7247,0.7301,0.731,0.7268,0.7353,0.7367,0.7422,0.7441,0.7418,0.7423,0.7571,0.7572,0.7574,0.7561,0,0,0,0,0,0,0.7024,0.7042,0.7061,0.7118,0.7138,0.7219,0.7218,0.7227,0.7256,0.7257,0.7317,0.7326,0.7354,0.7415,0.7428,0.7447,0.7427,0.7569,0.7571,0.7573,0.756,0.7562,0.7564,0,0,0,0,0,0.7018,0.7054,0.7062,0.7077,0.7163,0.722,0.7231,0.7262,0.7257,0.7277,0.7311,0.7324,0.7436,0.742,0.7435,0.7456,0.7568,0.7571,0.7573,0.756,0.7562,0.7564,0,0,0,0,0,0,0.6999,0.7062,0.7071,0.7127,0.7168,0.7225,0.7251,0.7264,0.7307,0.7307,0.7344,0.7357,0.741,0.7439,0.742,0.7508,0.7503,0.7508,0.7487,0.749,0.7492,0.7484,0.7431,0,0,0,0,0,0.7001,0.7041,0.7095,0.7139,0.7159,0.7201,0.7227,0.7247,0.7291,0.7309,0.7347,0.739,0.7435,0.7464,0.7508,0.7564,0.7578,0.7586,0.7588,0.7589,0.7594,0.7625,0.763,0.7582,0.7582,0.7582,0,0,0.7007,0.7046,0.7069,0.7136,0.717,0.7212,0.7215,0.7259,0.7291,0.7316,0.737,0.74,0.745,0.7506,0.7533,0.7532,0.761,0.7593,0.7593,0.7597,0.7628,0.7633,0.7637,0.7584,0.7584,0.7583,0,0,0.7037,0.7071,0.7111,0.7145,0.7195,0.7223,0.7232,0.7287,0.7307,0.7362,0.7381,0.742,0.7496,0.7531,0.7559,0.7602,0.7615,0.7615,0.7625,0.7655,0.7659,0.7662,0.7677,0.7682,0.7619,0.7619,0.7619,0,0.7038,0.7101,0.7131,0.7174,0.7202,0.7225,0.7267,0.7298,0.7361,0.738,0.7378,0.7474,0.751,0.7574,0.7584,0.7605,0.7618,0.7609,0.7655,0.7659,0.7663,0.7678,0.7684,0.7619,0.7619,0.7619,0.7619,0,0.7099,0.7142,0.7168,0.7227,0.7259,0.73,0.7338,0.7366,0.7383,0.7411,0.7467,0.751,0.7563,0.758,0.7597,0.7646,0.7644,0.7648,0.7644,0.7667,0.7681,0.7687,0.7619,0.7619,0.7619,0.7619,0,0,0.7122,0.7195,0.7205,0.7231,0.7288,0.7322,0.7365,0.7415,0.7439,0.7482,0.7519,0.7582,0.7586,0.7618,0.7639,0.7665,0.7696,0.7667,0.7668,0.7671,0.7753,0.7749,0.7755,0.7705,0.7706,0.7707,0.7748,0,0.716,0.7236,0.7264,0.7327,0.7367,0.7389,0.7426,0.7465,0.7492,0.7531,0.7561,0.7605,0.7607,0.7626,0.7653,0.7687,0.7713,0.7684,0.774,0.7742,0.7727,0.7763,0.776,0.7797,0.7754,0.7755,0.7756,0,0.7215,0.7256,0.7323,0.7373,0.7391,0.7424,0.7472,0.7509,0.7554,0.7571,0.7605,0.7625,0.7671,0.7663,0.7727,0.7707,0.7731,0.7751,0.7753,0.776,0.7751,0.7771,0.781,0.7815,0.7765,0.7765,0.7764,0,0.7226,0.7298,0.7347,0.7369,0.7429,0.7451,0.7478,0.7522,0.755,0.7592,0.7611,0.7659,0.7685,0.7722,0.7754,0.7745,0.7815,0.781,0.7831,0.7831,0.7846,0.7844,0.7889,0.7861,0.7861,0.7861,0.7861,0,0.7266,0.7305,0.7352,0.7382,0.7427,0.7459,0.7503,0.7531,0.7569,0.7606,0.7627,0.7661,0.7701,0.774,0.7766,0.7815,0.7827,0.7843,0.7849,0.7841,0.7839,0.7858,0.7856,0.7862,0.7862,0.7862,0.7861,0,0.7285,0.7318,0.7372,0.7424,0.7438,0.7469,0.7514,0.7544,0.7572,0.7617,0.763,0.7673,0.772,0.7755,0.7817,0.7834,0.7886,0.7893,0.7871,0.7874,0.7894,0.7891,0.7952,0.7962,0.7927,0.7927,0.7927,0,0.7309,0.7339,0.7394,0.7419,0.7445,0.7486,0.7514,0.7546,0.7575,0.7628,0.7652,0.77,0.774,0.7815,0.7852,0.7899,0.7907,0.7925,0.7914,0.7905,0.7907,0.7905,0.7908,0.7927,0.7927,0.7927,0.7927,0,0.7347,0.7361,0.7401,0.7446,0.7479,0.7516,0.7554,0.7574,0.7613,0.7645,0.7692,0.7723,0.7785,0.7832,0.7883,0.7911,0.7926,0.793,0.7938,0.793,0.7916,0.7924,0.7875,0.7929,0.7929,0.7929,0.7928,0.7928,0.7369,0.7397,0.744,0.7483,0.7514,0.7549,0.758,0.761,0.765,0.7702,0.7718,0.7768,0.7811,0.788,0.7908,0.7948,0.7948,0.7959,0.7962,0.7964,0.7963,0.7909,0.7957,0.7957,0.7957,0.7957,0.7957,0,0.7409,0.7436,0.7476,0.7527,0.7561,0.757,0.7613,0.7641,0.7683,0.7722,0.7761,0.7815,0.7861,0.7901,0.7949,0.7973,0.7981,0.7985,0.7984,0.799,0.7961,0.7949,0.7977,0.7977,0.7977,0.7977,0.7977,0.7977,0.7433,0.7481,0.75,0.7563,0.7591,0.7639,0.7662,0.7694,0.7725,0.7784,0.7822,0.7847,0.7887,0.7938,0.798,0.7991,0.8008,0.801,0.8022,0.7994,0.7992,0.799,0.7979,0.8013,0.8013,0.8048,0.8048,0.8049]}]]